Location: Limerick
(52.6800°N, 8.6400°W)
Time: 02:07:57
(UTC+00:00)

Daily predictions for brighter satellites

Satellite Brightness Start Highest point End
(mag) Time Altitude Azimuth Time Altitude Azimuth Time Altitude Azimuth
CZ-4C R/B 3.7 00:10:42 32° NE 00:10:42 32° NE 00:14:05 10° NE
Cosmos 1943 Rocket 3.5 00:42:46 36° N 00:42:46 36° N 00:46:29 10° NNE
ATLAS 5 CENTAUR R/B 3.7 00:43:11 31° NNW 00:43:11 31° NNW 00:48:09 10° NE
SL-16 R/B 4.1 01:16:01 25° E 01:17:50 28° NE 01:23:01 10° N
CZ-2C R/B 4.2 01:18:53 10° N 01:21:51 29° NNW 01:21:51 29° NNW
Cosmos 2297 Rocket 3.9 01:18:54 10° NW 01:21:10 25° NW 01:21:10 25° NW
USA 215 3.5 01:22:54 10° E 01:32:39 32° WNW 01:35:54 10° WNW
ATLAS 3B R/B 2.9 01:36:46 71° N 01:36:46 71° N 01:43:21 10° NE
COSMOS 2455 3.7 01:42:18 44° ENE 01:42:18 44° ENE 01:46:24 10° NE
Lacrosse 4 Rocket 4.4 01:38:46 10° N 01:40:59 14° NNE 01:43:13 10° NE
Cosmos 2369 Rocket 4.4 01:40:32 16° NW 01:42:20 18° NNW 01:46:12 10° NNE
Cosmos 2227 Rocket 4.4 01:44:21 10° NW 01:45:37 16° NW 01:45:37 16° NW
Cosmos 1697 Rocket 3.9 01:56:44 36° ENE 01:56:44 36° ENE 02:00:33 10° NE
CZ-4C R/B 3.6 01:55:51 34° NW 01:57:03 37° NNW 02:03:15 10° NE
NOSS 3-2 (A) 3.9 02:03:12 57° ENE 02:03:12 57° ENE 02:08:49 10° NE
ARIANE 5 R/B 4.5 01:59:05 10° NE 02:02:47 20° E 02:02:47 20° E
CZ-2D R/B 3.9 02:03:14 10° NE 02:07:38 24° E 02:07:57 24° E
Cosmos 2369 4.3 02:13:16 54° NNE 02:13:16 54° NNE 02:17:39 10° NNE
Cosmos 1980 Rocket 3.3 02:13:58 36° E 02:13:58 36° E 02:18:16 10° NE
Resurs 1-4 Rocket 3.7 02:08:52 10° NE 02:13:14 25° E 02:13:18 25° E
NPP 4.4 02:09:41 10° NNE 02:13:58 47° ENE 02:13:58 47° ENE
Cosmos 2278 4.2 02:19:06 55° N 02:19:06 55° N 02:23:38 10° NNE
USA 238 DEB 3.8 02:19:31 66° NW 02:19:46 66° NW 02:26:49 10° NE
USA 238 3.8 02:19:38 66° NW 02:19:52 67° NW 02:26:55 10° NE
Cosmos 2263 Rocket 3.1 02:18:56 10° NNW 02:24:21 46° NE 02:26:23 32° E
Cosmos 1943 Rocket 4.3 02:24:15 15° NW 02:26:12 17° NNW 02:29:54 10° NNE
ATLAS 5 CENTAUR R/B 3.9 02:24:39 10° NW 02:29:20 29° N 02:34:31 10° ENE
Cosmos 1386 Rocket 4.5 02:31:23 10° N 02:37:40 78° E 02:37:48 78° E
Cosmos 1553 Rocket 3.9 02:44:08 86° SE 02:44:13 87° E 02:50:41 10° N
NOSS 3-2 (C) 3.4 02:49:15 84° W 02:49:25 86° NW 02:56:24 10° NE
Meteor 1-11 Rocket 3.8 02:45:38 10° NNW 02:50:59 77° N 02:50:59 77° N
S3M 3.8 02:53:26 85° WNW 02:53:26 85° WNW 02:59:34 10° N
Meteor 2-11 Rocket 4.5 02:53:31 68° SE 02:54:03 72° E 03:00:13 10° NNE
Meteor 1-10 Rocket 4.2 02:57:06 86° NNW 02:57:06 86° NNW 03:02:56 10° NNE
CBERS-1 4.2 02:55:23 10° NNE 02:59:51 64° NNW 02:59:51 64° NNW
SL-16 R/B 2.4 03:01:05 74° W 03:01:05 74° W 03:07:15 10° NNW
IRS-1C 4.1 02:57:13 10° NNE 03:02:19 81° N 03:02:19 81° N
ADEOS Rocket 3.4 03:01:40 10° NNE 03:07:13 50° E 03:08:26 43° SE
USA 81 4.2 03:07:00 67° ESE 03:07:14 69° E 03:12:31 10° N
ADEOS 3.7 03:02:25 10° NNE 03:07:40 67° ESE 03:07:51 67° ESE
Meteor 1-27 Rocket 3.8 03:07:59 66° SSE 03:08:42 75° E 03:14:36 10° NNE
CENTAUR R/B 2.8 03:08:36 51° SSE 03:09:34 56° SE 03:16:28 10° NE
Cosmos 1674 Rocket 4.1 03:11:36 58° NNE 03:11:36 58° NNE 03:15:14 10° NNE
Cosmos 1709 Rocket 3.9 03:05:53 10° N 03:12:08 86° E 03:13:38 55° SSE
USA 215 3.1 03:05:51 10° SE 03:12:26 75° SSW 03:16:37 24° WNW
Cosmos 1656 4.2 03:13:19 47° NW 03:13:25 47° NW 03:18:51 10° NNE
Lacrosse 4 Rocket 2.5 03:16:46 10° NNW 03:20:44 42° NE 03:24:46 10° ESE
Cosmos 2322 Rocket 2.7 03:22:39 43° SSE 03:23:52 50° ESE 03:29:17 10° NE
Cosmos 968 Rocket 3.5 03:20:01 10° NNW 03:24:33 68° NW 03:24:33 68° NW
COSMOS 2455 3.7 03:25:25 34° WNW 03:26:45 38° NW 03:32:24 10° NNE
SL-16 R/B 2.7 03:26:14 42° SSE 03:27:37 52° ESE 03:33:08 10° NE
Cosmos 44 3.2 03:27:53 77° NNW 03:27:53 77° NNW 03:32:27 10° NE
ATLAS 3B R/B 3.8 03:24:00 22° WNW 03:27:59 38° NNW 03:34:26 10° NE
Cosmos 1992 Rocket 3.9 03:28:01 70° SSE 03:28:31 77° ESE 03:33:47 10° NNE
Spot 4 Rocket 3.9 03:23:44 10° NNE 03:28:55 76° WNW 03:29:07 75° W
Cosmos 883 Rocket 4.4 03:29:36 56° SSW 03:31:05 84° W 03:37:23 10° N
Cosmos 2292 Rocket 4.5 03:26:28 10° NNW 03:33:48 61° W 03:34:35 56° SW
Cosmos 44 Rocket 3.5 03:35:01 56° NW 03:35:13 57° NW 03:40:02 10° NE
Cosmos 1697 Rocket 3.2 03:38:27 41° WNW 03:39:13 43° NW 03:44:39 10° NNE
CZ-2D R/B 4.0 03:34:53 10° NNE 03:39:19 59° E 03:40:08 50° SE
Celestis-02/Orion 38 4.4 03:37:05 10° NNE 03:42:15 87° WNW 03:43:04 64° SW
ARIANE 5 R/B 2.4 03:37:26 10° NNE 03:42:32 72° WNW 03:43:08 65° WSW
Cosmos 1844 Rocket 3.8 03:37:22 10° NNW 03:42:45 44° NE 03:48:04 10° ESE
Cosmos 2344 4.5 03:34:40 10° NW 03:44:42 87° SW 03:58:34 10° SE
MOZ.5/SAFIR/RUBIN 5/SL-8 3.6 03:46:51 68° W 03:46:51 68° W 03:51:25 10° NNW
CZ-4C R/B 4.1 03:41:32 10° NW 03:47:13 34° N 03:53:39 10° ENE
CZ-2D R/B 2.2 03:42:44 10° NNE 03:48:13 68° WNW 03:49:17 54° SW
Cosmos 1346 Rocket 2.9 03:49:21 64° NNW 03:49:21 64° NNW 03:52:46 10° N
COBE Rocket 3.9 03:45:42 10° NNE 03:50:49 85° ESE 03:52:25 46° S
Cosmos 2278 Rocket 4.1 03:46:55 10° NNW 03:51:55 30° NE 03:56:53 10° E
NOSS 3-2 (A) 4.3 03:50:34 31° WNW 03:53:20 47° NNW 04:00:10 10° NE
Resurs 1-4 Rocket 2.1 03:48:16 10° N 03:53:29 60° WNW 03:54:23 52° WSW
Cosmos 1461 3.0 03:54:19 58° NW 03:54:19 58° NW 03:58:09 10° NE
SL-8 R/B 3.9 03:55:44 51° S 03:55:50 51° S 04:00:29 10° E
Cosmos 2360 Rocket 3.3 03:52:32 18° SSE 03:56:10 38° ESE 04:01:22 10° NE
Cosmos 1980 Rocket 2.6 03:55:43 42° W 03:56:58 49° NW 04:02:30 10° NNE
Cosmos 2184 Rocket 4.0 03:52:45 10° N 03:59:00 84° E 04:05:16 10° S
Cosmos 1544 Rocket 3.6 03:58:29 10° N 04:02:59 84° ENE 04:05:53 22° SSE
IRS-1D 3.7 03:58:23 10° N 04:03:08 47° WNW 04:03:48 44° W
ERBS 3.4 04:05:46 35° NNW 04:06:23 39° N 04:09:42 10° ENE
Meteor 1-12 Rocket 4.2 04:01:29 10° NNW 04:07:11 83° ENE 04:12:52 10° SSE
Cosmos 2263 Rocket 2.5 04:03:04 10° NW 04:07:57 40° W 04:07:57 40° W
Genesis I 3.6 04:07:44 49° S 04:08:25 57° SE 04:12:17 10° NE
CZ-4B R/B 4.0 04:08:01 10° NNE 04:11:24 37° E 04:13:49 17° SSE
Meteor 1-5 Rocket 4.4 04:06:31 10° NNW 04:11:30 42° W 04:11:58 41° WSW
MOS 1-B 4.4 04:06:09 10° NNE 04:12:01 79° ESE 04:16:03 21° S
Okean O Rocket 2.6 04:09:15 10° NNE 04:13:34 47° E 04:17:23 13° S
ATLAS 5 CENTAUR R/B 3.0 04:09:32 10° NW 04:15:07 56° NE 04:21:17 10° ESE
Cosmos 1777 Rocket 4.0 04:12:55 10° NNW 04:18:08 58° WSW 04:23:19 10° S
Meteor 1-18 Rocket 4.4 04:14:38 15° S 04:19:13 71° E 04:24:50 10° NNE
Cosmos 1812 2.6 04:19:26 42° S 04:20:41 89° E 04:24:35 10° N
ADEOS II 2.9 04:16:21 10° NNE 04:21:29 49° E 04:26:34 10° S
MTI 4.0 04:19:15 15° SSE 04:21:55 74° ENE 04:25:13 10° N
Cosmos 2322 4.3 04:24:02 15° S 04:28:40 57° ESE 04:34:16 10° NE
Okean 3 4.2 04:31:01 32° W 04:31:27 33° WNW 04:35:20 10° N
UNKNOWN OBJECT B 3.4 04:28:25 10° N 04:31:50 35° WNW 04:32:02 34° WNW
MOS 1 Rocket 3.2 04:27:21 10° NNE 04:32:16 81° WNW 04:35:15 22° SSW
Cosmos 2154 Rocket 4.0 04:26:22 10° N 04:32:37 82° ENE 04:38:49 10° SSE
Cosmos 1378 Rocket 4.3 04:32:21 31° W 04:32:52 32° WNW 04:36:47 10° N
Cosmos 1340 2.9 04:33:26 18° S 04:36:10 68° E 04:39:58 10° NNE
Cosmos 1455 Rocket 3.1 04:32:39 10° NNW 04:36:58 56° W 04:41:02 11° S
Cosmos 1666 3.9 04:33:17 10° N 04:37:01 44° ENE 04:40:44 10° SSE
Cosmos 1743 2.9 04:34:52 10° N 04:38:46 72° ENE 04:42:37 10° SSE
Cosmos 1844 3.8 04:38:13 10° NNW 04:44:03 83° ENE 04:49:48 10° SSE
SL-16 R/B 4.1 04:46:10 16° W 04:46:10 16° W 04:49:21 10° NW
CZ-4B DEB 4.4 04:41:21 10° NNE 04:46:57 74° ESE 04:52:31 10° S
Cosmos 1975 Rocket 3.7 04:46:49 28° WSW 04:48:15 36° WNW 04:52:18 10° N
DNEPR-1 R/B 4.1 04:45:57 25° WSW 04:49:14 65° NW 04:54:00 10° NE
CZ-4B R/B 3.4 04:45:57 10° NNE 04:51:41 80° ESE 04:57:17 10° SSW
Cosmos 1238 Rocket 3.2 04:49:45 10° S 04:52:36 44° E 04:55:30 10° NNE
ADEOS Rocket 3.6 04:47:35 10° N 04:52:37 33° WNW 04:55:23 21° WSW
EO 1 Del DPAF 3.5 04:49:14 10° S 04:52:58 46° W 04:56:44 10° NNW
IRAS Rocket 4.4 04:48:14 10° NNE 04:53:47 75° ESE 04:59:20 10° SSW
Okean 1 3.3 04:52:53 18° SSW 04:55:51 62° WNW 04:59:54 10° N
USA 215 4.0 04:50:34 10° S 04:56:09 29° SW 05:01:46 10° WNW
USA 116 4.1 04:52:49 10° SSE 04:57:08 85° ENE 05:02:03 10° NNW
Lacrosse 4 Rocket 2.1 04:55:40 10° NW 04:59:22 31° WSW 05:03:07 10° S
Cosmos 1867 3.6 04:54:20 10° NW 04:59:50 86° NE 05:05:18 10° SE
Cosmos 1975 3.5 04:56:30 10° NNW 05:00:13 34° W 05:03:28 12° SSW
CENTAUR R/B 3.1 04:55:46 19° W 05:00:24 54° NNW 05:07:40 10° NE
Nadezhda 1 Rocket 3.9 04:58:10 10° SSW 05:04:13 68° WNW 05:10:18 10° N
Orbus 7S? 3.9 05:01:55 18° W 05:06:34 64° NNW 05:09:52 10° ENE
Cosmos 1536 Rocket 3.6 05:03:28 10° SSW 05:07:55 65° WNW 05:12:25 10° N
Cosmos 2322 Rocket 2.9 05:04:27 18° WSW 05:08:06 39° NW 05:13:22 10° NNE
Cosmos 2341 Rocket 3.9 05:03:36 10° NNW 05:09:53 75° W 05:16:05 10° S
Cosmos 1500 4.2 05:06:46 10° NNW 05:10:00 26° W 05:12:19 15° SW
Geosat 4.3 05:05:54 10° SE 05:10:55 74° NE 05:15:58 10° NNW
Cosmos 2237 4.4 05:06:11 10° SSW 05:11:55 78° ESE 05:17:40 10° NNE
SL-16 R/B 2.9 05:08:07 17° WSW 05:11:57 38° NW 05:17:17 10° NNE
Iridium 2 4.5 05:10:05 10° N 05:13:51 56° E 05:17:37 10° SSE
PSLV R/B 4.3 05:10:39 10° N 05:14:06 36° WNW 05:16:45 15° SW
Meteor PRIRODA 3.9 05:10:23 10° NNE 05:14:09 76° ESE 05:17:55 10° S
COSMOS 2428 3.1 05:10:04 10° SSW 05:15:41 68° ESE 05:21:22 10° NE
Meteor 2-9 Rocket 4.2 05:11:58 10° NNW 05:17:46 87° WSW 05:23:22 10° S
PSLV R/B 3.6 05:13:42 10° N 05:17:59 62° WNW 05:22:17 10° SSW
Okean 1-7 Rocket 4.1 05:14:23 10° S 05:18:51 64° E 05:23:19 10° NNE
SKYMED 2 4.2 05:15:08 10° SSE 05:19:24 61° ENE 05:23:44 10° N
Molniya-1 4.2 05:17:46 20° WSW 05:19:35 55° NNW 05:24:02 10° NE
Cosmos 2218 Rocket 4.3 05:13:10 10° N 05:19:36 75° ENE 05:25:58 10° SSE
ATLAS 3B R/B 4.0 05:13:56 10° NW 05:20:28 35° NNE 05:26:38 10° ENE
ARIANE 5 R/B 4.3 05:17:55 10° NNW 05:20:52 16° NW 05:23:29 11° W
Cosmos 2219 Rocket 3.2 05:18:12 10° S 05:23:31 48° ESE 05:28:53 10° NE
Tiangong 2 3.5 05:23:18 10° SSW 05:23:42 10° SSW 05:24:07 10° S
Thor Agena Rocket 3.4 05:19:27 10° SSE 05:24:31 78° WSW 05:29:36 10° NNW
Cosmos 2150 Rocket 4.0 05:19:59 10° NNW 05:25:16 82° WSW 05:30:36 10° SSE
Meteor 1-15 Rocket 4.5 05:20:03 10° NNW 05:25:59 84° ENE 05:31:56 10° SSE
Cosmos 1844 Rocket 3.0 05:21:24 10° NW 05:26:40 42° WSW 05:31:51 10° S
Meteor 1-19 Rocket 4.3 05:21:17 10° SSW 05:26:57 87° WNW 05:32:45 10° NNE
CZ-2D R/B 3.9 05:24:06 10° NNW 05:27:22 16° NW 05:30:37 10° W
IRS-1C Rocket 4.3 05:22:51 10° N 05:27:58 54° WNW 05:33:04 10° SW
Resurs 1-4 Rocket 4.0 05:29:42 10° NNW 05:32:20 14° NW 05:34:58 10° WNW
ERS-2 2.1 05:29:39 10° NNE 05:33:24 81° WNW 05:37:06 10° SSW
Cosmos 1606 Rocket 3.7 05:29:26 10° N 05:33:56 86° E 05:38:25 10° S
Cosmos 2278 Rocket 2.2 05:30:52 10° NW 05:36:34 74° WSW 05:42:12 10° SSE
Cosmos 1570 Rocket 4.0 05:31:38 10° SSW 05:36:51 70° WNW 05:42:06 10° NNE
CZ-4C R/B 3.4 05:30:26 10° NW 05:37:02 59° NE 05:44:31 10° ESE
Cosmos 1898 Rocket 3.6 05:32:39 10° NNW 05:37:45 54° WSW 05:42:46 10° S
SL-8 R/B 4.3 05:33:42 11° W 05:38:00 42° SSW 05:42:29 10° SE
Cosmos 990 Rocket 4.0 05:32:55 10° NNW 05:38:09 83° WSW 05:43:19 10° SSE
Cosmos 2360 Rocket 2.6 05:34:38 10° SW 05:40:06 49° NW 05:45:37 10° NNE
Cosmos 1980 Rocket 4.0 05:38:40 10° WNW 05:42:25 18° NNW 05:46:12 10° NNE
Okean 2 4.0 05:38:38 10° S 05:42:45 64° E 05:46:55 10° NNE
Feng Yun 1-1 Rocket 4.5 05:37:14 10° NNE 05:43:12 89° ESE 05:49:00 10° SSW
ERBS 2.7 05:40:01 10° WNW 05:43:29 65° NNE 05:46:58 10° ESE
CZ-4B R/B 4.1 05:40:51 10° N 05:45:20 76° WNW 05:49:51 10° SSW
Meteor 2-4 Rocket 3.7 05:40:44 10° SSW 05:46:19 84° WNW 05:51:48 10° NNE
Genesis I 4.4 05:42:48 10° W 05:46:20 30° NNW 05:49:53 10° NNE
CZ-4B R/B 4.0 05:43:37 10° N 05:46:27 22° WNW 05:49:19 10° WSW
Cosmos 468 Rocket 4.5 05:42:04 10° SSW 05:47:12 66° ESE 05:52:25 10° NNE
Cosmos 2237 Rocket 3.4 05:42:44 10° S 05:48:09 46° ESE 05:53:34 10° NE
Cosmos 2297 4.0 05:43:16 10° NNW 05:49:03 75° NE 05:54:48 10° SE
Okean O Rocket 2.7 05:46:02 10° N 05:49:45 27° WNW 05:53:28 10° WSW
Cosmos 2285 Rocket 4.4 05:44:19 10° SSW 05:50:44 73° ESE 05:57:11 10° NNE
